Location: Home
(42.5358°N, 72.7383°W)
Time: 19:42:29
(UTC-05:00)

Explorer 7 - Pass Details

Date: 06 December 2021
Orbit: 483 x 674 km, 50.3° (Epoch: 23 January)

Event Time Altitude Azimuth Distance (km) Brightness Sun altitude
Rises 05:08:04 0° 246° (WSW) 2,868 - -21.1°
Reaches altitude 10° 05:10:26 10° 249° (WSW) 1,933 - -20.7°
Exits shadow 05:14:03 54° 277° (W) 705 6.9 -20.0°
Maximum altitude 05:14:50 67° 332° (NNW) 621 6.8 -19.9°
Drops below altitude 10° 05:18:58 10° 56° (NE) 1,818 10.0 -19.1°
Sets 05:21:09 0° 59° (ENE) 2,681 11.0 -18.7°
